Home > Weather > Wunstorf > Past weeks

Flag for Germany Past Weather in Wunstorf, Lower Saxony, Germany — Yesterday and Last 2 Weeks

Now
64 °F

Scattered clouds.


Feels Like: 64 °F
Forecast: 50 / 72 °F
Wind: 9 mph from Northwest

Location: Wunstorf Airport

Current Time: May 26, 2016 at 8:31:09 PM

Latest Report: May 26, 2016 at 7:20 PM


Visibility: N/A

Pressure: 30.01 "Hg

Humidity: 60%

Dew Point: 50 °F

Location of WunstorfLocation

Past Weather in Wunstorf — Graph

°F

Wunstorf Temperature Yesterday

Maximum temperature yesterday: 59 °F (at 6:20 PM)
Minimum temperature yesterday: 52 °F (at 2:20 AM)
Average temperature yesterday: 54 °F

High & Low Weather Summary for the Past Weeks

 TemperatureHumidityPressure
High82 °F (May 22, 2:20 PM)100% (May 23, 1:20 AM)30.07 "Hg (May 23, 1:20 AM)
Low41 °F (May 15, 3:20 AM)25% (May 13, 1:20 PM)29.53 "Hg (May 12, 5:20 PM)
Average57 °F67%29.87 "Hg
* Reported May 11 7:20 PM — May 26 7:20 PM, Wunstorf, Weather by CustomWeather, © 2016

Note: Actual official high and low records may vary slightly from our data, if they occured in-between our weather recording intervals... More about our weather records

Advertising

Wunstorf Weather History for the Previous 24 Hours

Scroll right to see more
 ConditionsComfort  
Time TempWeatherWind HumidityBarometerVisibility
7:20 PM
Thu, May 26
64 °FScattered clouds.9 mph60%30.01 "HgN/A
6:20 PM68 °FScattered clouds.3 mph49%30.01 "HgN/A
5:20 PM68 °FScattered clouds.5 mph49%30.01 "HgN/A
4:20 PM66 °FScattered clouds.6 mph49%30.01 "HgN/A
3:20 PM68 °FScattered clouds.7 mph46%30.01 "HgN/A
2:20 PM66 °FScattered clouds.10 mph49%30.04 "HgN/A
1:20 PM66 °FScattered clouds.9 mph49%30.04 "HgN/A
12:20 PM64 °FScattered clouds.9 mph52%30.04 "HgN/A
11:20 AM63 °FScattered clouds.8 mph56%30.04 "HgN/A
10:20 AM61 °FScattered clouds.7 mph63%30.04 "Hg6 mi
9:20 AM59 °FScattered clouds.5 mph68%30.04 "Hg6 mi
8:20 AM57 °FScattered clouds.5 mph77%30.01 "Hg5 mi
7:20 AM54 °FScattered clouds.2 mph82%30.01 "Hg5 mi
6:20 AM48 °FPartly sunny.No wind94%30.01 "Hg4 mi
5:20 AM48 °FFog.No wind94%30.01 "Hg4 mi
4:20 AM46 °FCool.5 mph93%30.01 "Hg2 mi
3:20 AM50 °FCool.No wind94%29.98 "Hg1 mi
2:20 AM50 °FCool.No wind94%30.01 "Hg2 mi
1:20 AM52 °FCool.3 mph88%30.01 "Hg3 mi
12:20 AM54 °FCool.No wind88%30.01 "Hg2 mi
11:20 PM
Wed, May 25
55 °FCool.No wind82%30.01 "Hg3 mi
10:20 PM55 °FCool.2 mph82%30.01 "Hg3 mi
9:20 PM57 °FCool.3 mph77%29.98 "Hg3 mi
8:20 PM57 °FCool.No wind72%29.98 "Hg3 mi
Weather by CustomWeather, © 2016

See weather overviewHow to use our weather pages